Regional Weather Roundup
Issued by NWS

Home | Current Version | Previous Version | Text Only | Print | Product List | Glossary Off
Versions: 1 2 3 4 5 6 7 8 9 10 11 12 13 14 15 16 17 18 19 20 21 22 23 24 25 26 27 28 29 30 31 32 33 34 35 36 37 38 39 40 41 42 43 44 45 46 47 48 49 50

000
ASUS45 KBOU 220007
RWRCO

WEATHER ROUNDUP FOR COLORADO
NATIONAL WEATHER SERVICE DENVER/BOULDER CO
600 PM MDT THU MAY 21 2015

NOTE: "FAIR" INDICATES FEW OR NO CLOUDS BELOW 12000 FEET WITH NO
SIGNIFICANT WEATHER AND/OR OBSTRUCTIONS TO VISIBILITY.

COZ001>005-013-030-031-220100-
...NORTHWEST COLORADO...

CITY           SKY/WX    TMP DP  RH WIND       PRES   REMARKS
CRAIG          PTSUNNY   65  39  38 E10       29.94F
HAYDEN         PTSUNNY   61  30  31 E6        29.97F
MEEKER         CLOUDY    64  35  34 SW6       29.94F
MOUNT WERNER   NOT AVBL
STEAMBOAT SPGS PTSUNNY   59  35  39 E9        29.99F
WALDEN         CLOUDY    54  34  47 SE12      30.09F
$$

COZ006>008-011-220100-
...WEST CENTRAL VALLEYS...

CITY           SKY/WX    TMP DP  RH WIND       PRES   REMARKS
GRAND JUNCTION CLOUDY    64  40  41 NW13      29.90R
MONTROSE       CLOUDY    65  33  30 VRB3      29.95R
EAGLE          PTSUNNY   63  36  36 NE3       30.00F
RIFLE          LGT RAIN  64  37  36 W16       29.91S
DELTA          CLOUDY    68  36  31 SW18G28   29.93R
NUCLA          CLOUDY    63  32  31 SE10      29.97R
$$

COZ017>023-064>068-220100-
...SOUTHWEST COLORADO...

CITY           SKY/WX    TMP DP  RH WIND       PRES   REMARKS
DURANGO        CLOUDY    55  38  52 SE17G30   30.02F
CORTEZ         SUNNY     73  26  17 S20       29.89F
PAGOSA SPRINGS RAIN      50  37  60 SW14G28   30.14R
TELLURIDE      CLOUDY    48  32  54 E6        30.12F
WOLF CREEK PAS NOT AVBL
$$

COZ009-010-012-014-032>034-037-058>063-220100-
...CENTRAL COLORADO...

CITY           SKY/WX    TMP DP  RH WIND       PRES   REMARKS
ASPEN          CLOUDY    52  36  54 SE8       30.04F
BUENA VISTA    CLOUDY    48  40  73 S7        30.13S
COPPER MTN     CLOUDY    41  27  56 E12G18    30.25F
BERTHOUD PASS  HAZE      28  21  74 NE12G33   30.30F VSB<1/4 WCI  18
COTTONWOOD PAS CLOUDY    43  37  81 SE7       30.19F
GUNNISON       CLOUDY    57  34  41 N14G20    30.06R
KREMMLING      CLOUDY    55  34  44 SE5       30.07S
LEADVILLE      CLOUDY    45  30  55 S10       30.15F
SALIDA         CLOUDY    47  45  91 NE10G20   30.20R
SUNLIGHT       CLOUDY    45  32  61 SE5       30.21S
WILKERSON PASS FOG       34  32  93 S6        30.29F VSB 1/4 WCI  29
$$

COZ069>075-220100-
...SAN LUIS VALLEY/SANGRE DE CRISTO MOUNTAINS...

CITY           SKY/WX    TMP DP  RH WIND       PRES   REMARKS
ALAMOSA        CLOUDY    58  37  45 S20G29    30.04R
LA VETA PASS   CLOUDY   N/A N/A N/A MISG      30.21F VSB<1/4
SAGUACHE       CLOUDY    52  37  58 E7        30.07S
$$

COZ035-036-038>040-220100-
...NORTHERN COLORADO FRONT RANGE...

CITY           SKY/WX    TMP DP  RH WIND       PRES   REMARKS
DENVER INTL AP CLOUDY    52  44  74 W10       30.11S
DMNS CITY PARK   N/A     53  42  66 N3        30.10F
AURORA         CLOUDY    51  44  76 NW8       30.12S
FRONT RANGE AP PTSUNNY   57  46  67 SE14      30.10F
ERIE MUNI ARPT CLOUDY    52  43  71 CALM      30.12F
BOULDER MUN AP CLOUDY    52  45  76 N3        30.11F
CENTENNIAL     CLOUDY    51  43  74 N5        30.11F
BROOMFIELD     CLOUDY    50  45  81 NW5       30.13S
FORT COLLINS   CLOUDY    54  43  66 N5        30.12S
LONGMONT       CLOUDY    55  43  64 CALM      30.13S
$$

COZ041-046-047-076>085-087-088-220100-
...PIKES PEAK/PALMER DIVIDE AND SOUTHERN FOOTHILLS...

CITY           SKY/WX    TMP DP  RH WIND       PRES   REMARKS
COLO. SPRINGS  LGT RAIN  46  45  96 SE10      30.15F FOG
A. F. ACADEMY  CLOUDY    46  42  88 S12       30.14F
ELLICOTT       NOT AVBL
FALCON         CLOUDY    44  43  96 S10       30.17F FOG
FORT CARSON    CLOUDY    46  46 100 SE8       30.13F FOG
LIMON          CLOUDY    48  43  82 SE18      30.15F
MONUMENT HILL  NOT AVBL
TRINIDAD       CLOUDY    55  45  68 CALM      30.09F
$$

COZ042>045-048>051-090-091-220100-
...NORTHEAST COLORADO...

CITY           SKY/WX    TMP DP  RH WIND       PRES   REMARKS
GREELEY ARPT   CLOUDY    57  46  67 SE9       30.10S
AKRON          CLOUDY    53  44  71 SE20G25   30.14F
BURLINGTON     CLOUDY    53  43  68 SE14      30.17F
WRAY           CLOUDY    58  45  60 SE16      30.16F
STERLING       CLOUDY    57  45  62 SE14      30.12S
HOLYOKE        NOT AVBL
FORT MORGAN    CLOUDY    55  44  64 SE14G20   30.12S
$$

COZ086-089-092>099-220100-
...SOUTHEAST COLORADO...

CITY           SKY/WX    TMP DP  RH WIND       PRES   REMARKS
PUEBLO         CLOUDY    53  47  79 E14       30.10F
LA JUNTA       CLOUDY    57  47  69 SE21      30.09F
LAMAR          CLOUDY    56  45  66 SE17G23   30.12F
SPRINGFIELD      N/A     50  44  80 S16       30.17F
$$



USA.gov is the U.S. government's official web portal to all federal, state and local government web resources and services.